Weather History for Houghton, MI

Change the Weather History Date:

Thursday, May 23, 2013

  Actual Average Record
Temperature  
Mean Temperature 41 °F -  
Max Temperature 48 °F 64 °F 87 °F (1991)
Min Temperature 33 °F 45 °F 25 °F (1956)
Degree Days  
Heating Degree Days 24    
Moisture  
Dew Point 29 °F    
Average Humidity 68    
Maximum Humidity 82    
Minimum Humidity 48    
Precipitation  
Precipitation 0.00 in - - ()
Sea Level Pressure  
Sea Level Pressure 30.26 in    
Wind  
Wind Speed 13 mph (North)    
Max Wind Speed 18 mph    
Max Gust Speed 32 mph    
Visibility 10 miles    
Events      
Averages and records for this station are not official NWS values.
T = Trace of Precipitation, MM = Missing Value Source: NWS Daily Summary

Daily Weather History Graph

Daily Weather History Graph

Search for Another Location

Airport:

Trip Planner

Search our weather history database for the weather conditions in past years. The results will help you decide how hot, cold, wet, or windy it might be!

Date:

Astronomy

May. 23, 2013 Rise Set
Actual Time 6:09 AM EDT 9:33 PM EDT
Civil Twilight 5:31 AM EDT 10:10 PM EDT
Nautical Twilight 4:42 AM EDT 11:00 PM EDT
Astronomical Twilight 3:38 AM EDT 12:05 AM EDT
Moon 8:00 PM EDT (5/23) 5:01 AM EDT (5/23)
Length of Visible Light 16h 39m
Length of Day
15h 24m
Waxing Gibbous, 97% of the Moon is Illuminated
May 23
Waxing Gibbous
May 25
Full
May 31
Last Quarter
Jun 8
New
Jun 16
First Quarter

Hourly Weather History & Observations

Time (EDT) Temp. Windchill Dew Point Humidity Pressure Visibility Wind Dir Wind Speed Gust Speed Precip Events Conditions
12:53 AM 41.0 °F 33.1 °F 33.1 °F 73% 30.06 in 10.0 mi NE 15.0 mph 32.2 mph N/A   Partly Cloudy
1:53 AM 41.0 °F 33.1 °F 32.0 °F 70% 30.08 in 10.0 mi NE 15.0 mph 25.3 mph N/A   Overcast
2:53 AM 39.0 °F 31.8 °F 30.9 °F 73% 30.10 in 10.0 mi NE 11.5 mph 19.6 mph N/A   Mostly Cloudy
3:53 AM 39.0 °F 32.8 °F 30.0 °F 70% 30.12 in 10.0 mi NE 9.2 mph 19.6 mph N/A   Overcast
4:53 AM 37.0 °F 29.3 °F 30.0 °F 76% 30.14 in 10.0 mi NNE 11.5 mph - N/A   Overcast
5:14 AM 35.6 °F 27.1 °F 28.4 °F 75% 30.12 in 10.0 mi NE 12.7 mph 19.6 mph N/A   Mostly Cloudy
5:53 AM 36.0 °F 27.1 °F 28.9 °F 76% 30.17 in 10.0 mi NNE 13.8 mph 23.0 mph N/A   Overcast
6:53 AM 34.0 °F 23.0 °F 28.0 °F 79% 30.20 in 10.0 mi NNE 18.4 mph 27.6 mph N/A   Overcast
7:53 AM 34.0 °F 25.5 °F 27.0 °F 75% 30.24 in 10.0 mi NNE 11.5 mph 24.2 mph N/A   Overcast
8:53 AM 34.0 °F 24.6 °F 27.0 °F 75% 30.26 in 10.0 mi NE 13.8 mph 24.2 mph N/A   Overcast
9:53 AM 34.0 °F 23.8 °F 27.0 °F 75% 30.29 in 10.0 mi NNE 16.1 mph 26.5 mph N/A   Overcast
10:53 AM 36.0 °F 26.3 °F 28.0 °F 73% 30.30 in 10.0 mi North 16.1 mph 21.9 mph N/A   Overcast
11:53 AM 37.0 °F 28.5 °F 28.0 °F 70% 30.32 in 10.0 mi North 13.8 mph 23.0 mph N/A   Overcast
12:53 PM 39.9 °F 32.5 °F 28.9 °F 65% 30.32 in 10.0 mi NNE 12.7 mph 19.6 mph N/A   Mostly Cloudy
1:07 PM 41.0 °F 33.5 °F 28.4 °F 61% 30.29 in 10.0 mi NNE 13.8 mph 20.7 mph N/A   Scattered Clouds
1:53 PM 43.0 °F 37.2 °F 28.9 °F 58% 30.32 in 10.0 mi North 10.4 mph 21.9 mph N/A   Clear
2:53 PM 44.1 °F 38.1 °F 28.0 °F 53% 30.33 in 10.0 mi North 11.5 mph 21.9 mph N/A   Clear
3:53 PM 46.0 °F 39.6 °F 28.9 °F 51% 30.32 in 10.0 mi North 15.0 mph 24.2 mph N/A   Clear
4:53 PM 46.9 °F - 30.0 °F 52% 30.33 in 10.0 mi NNE 11.5 mph 18.4 mph N/A   Clear
5:53 PM 48.0 °F - 28.9 °F 48% 30.33 in 10.0 mi North 11.5 mph 19.6 mph N/A   Clear
6:53 PM 46.9 °F - 28.9 °F 50% 30.34 in 10.0 mi NNW 8.1 mph 16.1 mph N/A   Clear
7:53 PM 45.0 °F 40.6 °F 30.9 °F 58% 30.35 in 10.0 mi NW 8.1 mph - N/A   Clear
8:53 PM 39.0 °F 31.8 °F 32.0 °F 76% 30.36 in 10.0 mi NW 11.5 mph - N/A   Clear
9:53 PM 35.1 °F 28.6 °F 30.0 °F 82% 30.37 in 10.0 mi NW 8.1 mph - N/A   Clear
10:53 PM 34.0 °F 28.0 °F 28.0 °F 79% 30.37 in 10.0 mi NW 6.9 mph - N/A   Clear
11:53 PM 33.1 °F 26.9 °F 28.0 °F 82% 30.38 in 10.0 mi NW 6.9 mph - N/A   Clear